Theta_e
307 306 306 308 309 308 309 309 307 304 304 305 303 300 301 306 304 304 309 310 309 307 309 309 306 309 313 319 318 315 322 328 324 324 324 321 322 321 331 335 334 333 332 330 333
308 308 307 307 306 306 308 308 306 305 305 304 302 300 299 306 308 304 306 308 308 308 310 312 311 313 308 319 319 319 321 326 321 320 322 321 320 320 327 334 336 336 331 332 332
309 309 309 309 308 307 306 307 306 306 305 303 301 299 299 305 307 307 304 304 303 307 312 313 313 314 313 318 319 320 324 323 321 320 320 321 321 320 323 323 326 328 331 332 333
310 309 308 307 306 307 307 307 307 305 305 304 303 300 301 303 302 303 304 302 300 303 309 310 308 308 311 315 315 319 321 320 322 321 322 322 320 321 320 322 322 325 328 330 332
308 307 307 306 305 305 306 306 306 305 304 304 306 301 301 301 303 303 304 303 300 303 305 306 309 310 309 310 311 313 317 316 315 315 317 322 324 322 321 318 318 320 328 329 332
306 306 305 305 304 304 305 305 305 305 304 305 306 303 304 301 303 303 303 301 301 303 305 305 309 310 311 313 313 312 313 313 312 312 314 315 321 324 322 319 319 320 327 328 331
306 307 307 306 305 304 305 305 305 304 301 303 305 305 304 302 303 303 302 303 304 304 305 306 306 309 309 311 311 313 313 309 310 311 314 320 320 321 321 321 322 323 329 326 330
306 306 306 306 306 305 304 305 304 301 301 304 305 306 301 303 302 302 304 304 304 304 305 307 307 309 310 310 309 310 309 312 309 309 312 319 309 314 318 321 324 325 327 329 326
307 306 306 305 306 305 305 304 301 302 303 305 305 304 302 300 301 303 303 303 304 305 306 306 307 308 309 310 306 305 304 308 308 308 309 317 316 315 314 323 324 328 328 326 326
307 307 307 305 306 305 302 302 304 304 303 305 304 297 297 298 301 303 303 303 303 304 303 304 305 306 305 305 298 301 305 306 307 307 307 308 309 310 312 315 318 321 325 328 324
307 307 306 306 305 302 302 302 295 296 299 300 300 299 299 301 303 302 303 303 301 301 302 303 303 302 301 303 306 306 308 307 305 305 306 308 309 308 309 311 312 315 318 318 327
307 307 306 305 301 300 300 300 300 299 297 300 301 300 300 303 303 300 303 302 302 302 301 301 303 300 302 302 303 304 306 306 305 305 306 306 308 308 309 310 310 311 315 317 318
307 307 306 303 303 299 301 302 303 302 297 300 300 299 301 302 303 301 302 302 302 304 303 304 299 301 303 303 305 304 303 302 303 303 305 306 308 305 306 308 309 309 310 314 316
307 306 306 302 302 302 301 302 301 301 292 297 298 300 300 299 299 301 301 302 303 304 303 301 301 303 302 302 302 303 301 301 303 304 306 305 307 305 304 307 310 310 309 312 315
307 306 304 302 302 302 301 301 300 296 293 293 297 299 297 299 299 299 301 302 303 302 302 300 301 301 303 303 302 302 302 303 304 306 307 306 308 306 306 309 310 311 312 313 315
306 305 302 302 302 301 300 300 298 293 291 296 296 297 298 298 299 299 298 298 299 301 301 301 301 302 302 302 301 302 303 304 305 303 306 304 306 307 305 305 308 309 310 312 314
306 303 303 301 299 299 300 295 292 292 291 291 297 298 298 300 299 298 298 298 302 301 297 300 301 299 301 303 303 303 302 300 296 305 306 307 307 309 308 307 307 308 309 313 313
305 302 302 301 299 300 298 291 288 283 286 294 297 297 298 297 297 296 299 297 300 302 301 300 297 300 303 305 303 302 301 301 300 305 305 304 304 306 307 308 311 311 310 312 314
302 301 299 298 299 301 291 287 288 286 295 294 295 293 294 296 294 296 296 295 300 302 297 299 299 299 298 298 300 303 306 303 307 305 307 302 304 308 310 310 309 310 310 313 313
301 298 298 298 300 297 290 293 288 293 296 292 293 294 291 291 291 290 293 295 300 302 299 299 301 298 299 299 301 304 304 306 299 308 306 303 304 312 311 310 308 307 307 312 313
299 294 297 298 298 291 290 285 292 295 297 296 288 293 296 294 293 293 289 295 299 299 299 298 301 299 299 300 299 302 305 304 304 304 310 309 310 312 309 306 305 304 305 310 314
296 293 297 297 292 279 287 286 295 296 296 297 292 293 294 296 294 294 289 292 297 295 297 299 301 299 299 298 296 302 303 306 308 305 306 307 308 310 309 307 304 301 307 311 308
296 293 296 295 292 288 290 293 295 296 297 297 297 295 294 296 291 292 287 294 295 294 293 298 297 294 295 296 301 303 302 303 305 307 307 310 308 307 308 309 307 302 303 307 305
295 294 291 290 290 291 290 289 291 294 296 296 297 296 294 295 295 288 289 294 296 291 299 301 297 295 296 298 298 300 300 299 302 305 305 305 305 305 304 309 305 302 300 303 303
291 293 295 297 297 292 291 289 287 293 295 295 297 295 296 293 295 290 288 294 296 297 297 298 294 293 295 297 297 298 298 300 301 303 305 304 304 304 307 308 308 306 300 302 301
294 293 291 288 294 294 294 292 292 292 294 294 296 296 296 290 294 289 295 295 297 295 296 293 289 291 294 293 296 299 298 299 301 303 304 304 306 305 303 305 309 308 305 300 300
295 294 294 295 295 296 295 294 294 293 294 294 295 295 296 296 294 293 292 294 295 295 295 296 294 288 289 291 291 289 296 300 300 301 303 304 304 301 302 304 308 308 303 305 300
Wind_Speed
4 4 6 7 8 10 11 13 14 16 17 20 21 21 21 12 13 15 10 12 15 17 17 18 11 14 3 3 3 3 2 10 6 6 6 2 4 2 0 3 3 4 1 2 26
4 6 7 7 8 9 11 13 15 16 17 18 20 21 20 11 6 12 12 15 16 17 12 14 8 12 3 2 2 4 4 6 6 6 5 8 8 7 4 5 4 3 2 11 29
6 6 7 8 9 9 9 11 12 14 16 17 19 20 18 6 2 4 17 19 18 16 10 7 7 3 3 3 2 3 5 3 2 6 7 10 5 6 7 7 6 6 4 13 23
9 9 9 9 9 10 10 10 11 12 14 16 18 19 9 2 1 7 14 19 19 12 8 8 5 4 4 4 6 6 4 5 6 8 7 6 5 5 11 12 7 8 4 13 18
11 11 11 11 10 10 10 10 12 13 14 15 17 17 4 4 0 8 13 21 15 11 8 4 5 3 4 4 7 4 6 9 13 14 14 10 15 12 11 7 10 7 6 15 19
12 11 11 10 10 9 9 10 11 12 13 15 15 15 3 3 6 11 18 21 12 9 8 5 2 3 3 3 1 5 7 10 7 11 12 17 20 7 3 8 9 9 10 16 22
10 11 10 8 9 9 8 10 11 12 13 12 11 11 3 1 10 13 15 11 12 9 3 4 5 2 4 6 3 6 11 12 7 7 8 7 29 30 9 10 13 15 11 16 20
10 10 10 10 9 8 9 10 11 11 11 7 7 6 2 5 9 13 13 9 15 8 3 6 2 2 3 4 7 5 3 4 5 11 6 8 37 8 4 11 16 16 13 15 19
8 9 9 8 8 8 8 10 12 10 5 4 2 3 3 7 10 12 11 10 15 8 6 6 2 3 4 3 4 4 5 6 7 5 8 9 24 8 9 10 14 10 10 9 13
9 9 8 7 6 7 8 11 3 0 2 0 1 2 5 5 12 10 11 11 3 8 6 7 4 2 3 2 4 5 8 8 12 5 19 23 31 16 12 14 9 8 10 12 13
10 8 6 3 4 6 7 1 4 3 6 1 1 1 3 12 4 7 8 8 5 6 4 4 2 6 7 7 8 9 13 17 14 14 17 22 28 21 17 11 17 11 14 9 14
7 7 5 3 2 3 3 5 2 1 2 2 3 3 4 2 3 5 10 5 5 3 4 4 6 4 3 6 8 8 11 19 17 12 12 19 28 20 16 19 19 20 16 16 13
9 7 6 4 1 5 9 5 2 2 2 3 2 2 4 2 2 5 5 2 1 2 3 3 5 8 4 8 6 6 8 17 18 16 15 20 27 23 20 23 22 25 23 20 19
9 8 8 6 1 3 3 3 2 2 4 3 2 2 3 3 2 4 2 0 3 2 5 6 4 3 6 8 5 11 12 15 13 10 11 6 19 22 19 21 20 23 23 20 21
9 10 9 6 6 3 4 1 1 1 4 3 5 5 8 2 4 1 5 2 4 4 1 7 7 6 8 8 5 11 2 10 15 15 13 18 9 14 8 13 21 18 20 21 22
12 12 9 7 4 7 4 1 1 6 5 2 3 6 5 4 6 7 6 5 1 3 3 9 3 4 6 6 7 13 10 15 15 7 9 27 12 15 15 18 19 20 20 22 20
15 13 8 6 4 6 5 3 5 4 4 5 3 4 2 4 5 5 5 5 4 6 5 5 4 4 4 5 2 2 7 5 5 2 7 2 3 9 16 12 17 21 19 15 17
18 13 6 6 8 7 3 5 4 3 5 2 2 3 3 6 3 5 3 4 0 2 4 4 9 2 3 2 7 11 6 2 5 6 17 14 7 9 6 9 10 13 20 11 11
20 13 7 6 7 6 5 4 7 7 3 3 2 4 4 3 2 6 2 2 2 3 1 4 7 4 9 10 3 3 4 6 7 12 11 4 8 7 9 17 20 19 19 12 13
17 8 5 5 7 4 4 5 4 3 5 4 4 3 2 3 5 5 3 3 1 2 3 4 9 5 5 3 7 6 4 5 4 5 8 6 6 3 14 22 25 22 17 12 10
12 3 4 6 5 4 4 6 4 4 2 4 4 3 4 2 3 1 4 4 4 2 3 2 6 7 7 2 3 4 4 3 4 3 5 8 6 2 9 14 21 24 18 16 11
8 1 4 9 3 1 3 6 4 4 1 2 4 5 5 5 2 3 6 6 3 4 3 1 4 5 10 15 7 5 5 3 4 6 8 11 8 4 4 12 15 17 17 6 9
4 3 2 2 3 3 2 2 2 4 4 5 5 5 4 4 0 4 4 4 5 5 3 2 3 5 10 5 2 2 5 11 13 5 9 9 7 15 14 18 16 14 12 4 7
4 3 2 3 1 6 5 3 3 3 3 3 2 4 2 2 5 4 3 4 4 6 5 2 3 6 6 15 13 16 16 17 10 6 9 14 17 24 25 17 14 16 8 6 5
1 5 4 5 5 4 4 5 4 5 4 6 2 7 6 4 3 5 3 4 3 3 2 3 6 5 14 19 21 23 18 18 15 16 10 20 21 22 17 13 14 17 7 4 3
5 4 1 2 5 8 8 7 10 3 8 5 5 7 8 6 9 8 5 4 5 1 3 3 5 3 8 10 7 16 16 18 13 14 12 13 18 7 15 9 17 13 10 2 1
6 3 4 7 5 5 6 7 10 8 8 5 11 4 7 17 9 8 7 5 6 5 4 3 3 4 6 8 13 4 5 7 6 6 4 6 11 16 19 12 14 14 8 4 5
Wind_Direction
5 349 351 351 348 350 352 354 355 357 359 358 355 355 355 1 47 56 44 348 335 337 341 350 5 358 300 272 221 129 229 242 217 189 240 253 238 267 7 190 192 207 244 297 162
354 353 342 333 335 339 343 347 350 351 354 354 352 350 349 346 356 41 0 352 352 354 356 8 357 352 353 282 275 186 223 246 188 206 235 263 217 234 208 215 235 241 203 144 156
303 305 307 305 311 319 331 338 341 345 347 348 347 346 343 350 355 342 357 358 353 359 9 359 350 22 13 333 250 254 257 259 245 247 245 262 251 221 195 226 217 234 190 164 166
291 298 302 304 307 308 313 325 333 338 341 344 343 345 351 21 2 344 354 357 356 351 10 2 4 33 13 329 343 322 309 347 330 344 315 278 302 254 220 232 215 232 190 172 183
294 291 287 290 295 305 310 318 326 331 338 341 342 348 17 46 337 330 336 342 350 9 29 16 34 24 349 328 330 243 339 333 329 317 305 272 271 260 248 241 264 256 186 184 192
297 293 290 289 286 291 302 311 318 324 333 338 344 352 36 72 339 339 334 340 10 22 4 13 16 319 283 268 246 306 293 300 296 297 287 286 284 257 139 213 259 268 214 197 196
298 298 292 293 291 289 299 306 311 321 329 339 349 358 26 158 340 341 344 4 18 360 347 342 337 54 341 300 293 287 303 308 247 237 236 302 272 253 229 234 244 257 219 209 209
290 296 288 287 294 296 303 306 310 315 323 344 347 3 269 346 345 347 354 354 349 10 339 321 3 220 198 294 342 315 279 334 322 350 265 187 260 341 263 224 237 234 229 214 213
298 296 298 292 295 301 306 311 310 308 319 328 347 38 312 333 352 343 345 336 335 352 333 295 233 215 2 352 349 336 283 286 307 259 286 249 285 345 304 260 260 238 233 217 220
276 278 286 291 292 301 316 321 333 311 22 93 6 41 354 312 323 327 355 345 341 337 8 33 32 19 7 60 251 277 282 277 284 305 307 294 287 295 301 292 272 274 266 223 207
264 267 267 257 292 313 328 271 14 342 41 106 238 235 281 326 357 343 347 347 16 41 15 325 358 230 236 224 245 268 274 277 278 282 276 269 277 282 279 276 284 266 264 278 248
247 258 241 202 19 337 14 77 85 317 323 232 265 280 273 345 334 318 357 39 34 354 323 348 245 269 253 266 256 266 282 287 280 262 256 275 277 278 272 262 265 272 257 252 253
215 219 207 181 129 57 82 96 67 351 82 308 301 297 289 26 332 280 12 344 17 355 326 237 256 326 272 285 290 276 261 276 276 285 271 284 280 282 270 252 252 252 249 243 242
197 197 183 172 187 113 81 105 43 28 67 291 343 3 338 15 281 260 292 337 337 312 299 252 278 301 304 270 237 280 250 268 277 298 287 177 286 280 280 266 246 244 248 231 233
196 177 180 178 147 101 129 101 53 79 4 295 309 319 335 34 310 8 331 22 243 234 105 263 283 285 285 251 168 254 277 275 281 275 281 276 261 290 259 265 247 240 238 225 222
183 177 169 155 124 128 123 89 360 44 253 4 320 352 6 3 343 325 14 20 307 304 228 255 285 254 227 285 224 263 303 288 266 252 262 261 235 269 271 257 259 253 246 231 218
175 173 175 156 142 141 128 46 35 127 328 298 329 358 314 320 340 24 360 12 24 359 344 311 262 273 206 301 296 87 335 307 327 307 255 11 293 240 295 269 251 260 256 236 217
170 169 149 134 138 140 111 54 96 240 226 354 324 306 39 10 12 331 14 14 108 58 299 329 321 271 133 213 277 296 192 235 277 288 291 292 248 258 264 324 318 303 279 217 200
165 149 135 139 147 152 74 72 204 203 175 136 22 40 329 8 52 359 29 235 282 47 131 323 274 286 284 283 173 312 241 224 272 258 265 252 286 308 357 347 335 327 309 205 188
154 134 119 155 151 120 79 237 196 217 126 85 150 130 244 285 27 39 336 236 244 142 83 289 289 260 283 296 245 206 300 316 328 296 298 277 274 281 339 346 327 313 305 242 204
144 87 146 156 156 52 162 220 220 225 165 139 180 197 231 242 158 274 258 285 224 182 246 247 229 284 349 258 261 332 293 297 228 218 290 312 294 2 332 339 323 310 291 277 202
132 110 155 161 61 336 160 189 187 167 161 116 113 182 197 189 224 249 232 223 154 154 304 217 288 280 274 291 261 217 271 260 307 301 281 269 276 209 18 355 333 312 297 214 157
114 127 78 170 169 235 265 275 218 149 191 167 193 196 205 204 272 216 225 267 195 166 183 316 276 316 329 355 330 332 301 292 288 254 266 295 296 316 342 336 342 324 327 335 122
121 125 343 52 286 143 151 230 218 220 174 176 172 134 126 238 202 262 267 281 182 196 220 214 243 207 239 269 291 288 296 286 272 272 299 271 297 315 322 329 338 343 330 355 58
74 203 178 177 219 168 163 133 150 180 214 182 208 204 177 211 227 228 250 283 255 223 165 200 255 226 255 270 275 275 280 280 278 266 263 288 301 301 322 336 344 337 330 1 73
141 143 76 138 133 137 189 201 178 206 159 227 216 205 191 197 199 199 193 195 238 132 190 177 277 307 283 270 287 298 282 276 266 265 265 276 291 308 331 330 340 4 348 317 145
149 124 120 154 142 146 206 187 196 154 216 181 208 160 201 235 238 242 220 215 236 186 214 234 266 349 272 320 314 13 260 289 282 249 271 302 307 318 321 333 336 355 343 321 157